TimeCST,TemperatureF,Dew PointF,Humidity,Sea Level PressureIn,VisibilityMPH,Wind Direction,Wind SpeedMPH,Gust SpeedMPH,PrecipitationIn,Events,Conditions,WindDirDegrees,DateUTC
12:56 AM,61.0,57.0,87,30.06,10.0,Calm,Calm,-,N/A,,Clear,0,2012-11-04 05:56:00
1:56 AM,59.0,57.0,93,30.05,9.0,Calm,Calm,-,N/A,,Clear,0,2012-11-04 06:56:00
1:56 AM,55.9,53.1,90,30.05,7.0,Calm,Calm,-,N/A,,Clear,0,2012-11-04 07:56:00
2:11 AM,55.4,53.6,94,30.05,1.5,Calm,Calm,-,N/A,,Clear,0,2012-11-04 08:11:00
2:23 AM,53.6,53.6,100,30.05,3.0,Calm,Calm,-,N/A,,Clear,0,2012-11-04 08:23:00
2:56 AM,59.0,57.9,96,30.03,6.0,WSW,4.6,-,N/A,,Clear,250,2012-11-04 08:56:00
3:48 AM,55.4,51.8,88,30.04,2.5,Calm,Calm,-,N/A,,Clear,0,2012-11-04 09:48:00
3:56 AM,55.0,53.1,93,30.03,6.0,Calm,Calm,-,N/A,,Clear,0,2012-11-04 09:56:00
4:16 AM,53.6,51.8,94,30.04,1.8,Calm,Calm,-,N/A,,Partly Cloudy,0,2012-11-04 10:16:00
4:20 AM,53.6,51.8,94,30.04,0.8,Calm,Calm,-,N/A,,Mist,0,2012-11-04 10:20:00
4:38 AM,55.4,53.6,94,30.05,1.2,SSW,3.5,-,N/A,,Partly Cloudy,200,2012-11-04 10:38:00
4:56 AM,57.0,55.0,93,30.04,0.8,Calm,Calm,-,N/A,,Clear,0,2012-11-04 10:56:00
5:08 AM,53.6,51.8,94,30.06,2.0,NNW,3.5,-,N/A,,Clear,340,2012-11-04 11:08:00
5:10 AM,53.6,51.8,94,30.06,3.0,North,3.5,-,N/A,,Partly Cloudy,10,2012-11-04 11:10:00
5:40 AM,55.4,53.6,94,30.07,1.8,Calm,Calm,-,N/A,,Clear,0,2012-11-04 11:40:00
5:56 AM,54.0,52.0,93,30.06,2.5,Calm,Calm,-,N/A,,Partly Cloudy,0,2012-11-04 11:56:00
6:08 AM,55.4,53.6,94,30.07,1.0,Calm,Calm,-,N/A,,Mist,0,2012-11-04 12:08:00
6:15 AM,53.6,53.6,100,30.07,0.8,Calm,Calm,-,N/A,,Mist,0,2012-11-04 12:15:00
6:19 AM,53.6,53.6,100,30.07,1.2,South,3.5,-,N/A,,Partly Cloudy,190,2012-11-04 12:19:00
6:32 AM,55.4,53.6,94,30.08,2.5,Calm,Calm,-,N/A,,Clear,0,2012-11-04 12:32:00
6:42 AM,55.4,53.6,94,30.08,4.0,Calm,Calm,-,N/A,,Clear,0,2012-11-04 12:42:00
6:56 AM,57.9,55.0,90,30.08,4.0,WSW,3.5,-,N/A,,Clear,250,2012-11-04 12:56:00
7:56 AM,64.0,60.1,87,30.09,10.0,West,3.5,-,N/A,,Clear,270,2012-11-04 13:56:00
8:56 AM,69.1,57.0,65,30.08,10.0,Variable,6.9,-,N/A,,Clear,0,2012-11-04 14:56:00
9:56 AM,71.1,55.9,59,30.07,10.0,Variable,4.6,-,N/A,,Clear,0,2012-11-04 15:56:00
10:56 AM,75.0,55.0,50,30.04,10.0,WNW,5.8,-,N/A,,Clear,290,2012-11-04 16:56:00
11:56 AM,75.9,55.0,48,30.01,10.0,Variable,4.6,-,N/A,,Clear,0,2012-11-04 17:56:00
12:56 PM,75.9,53.1,45,30.01,10.0,WNW,10.4,-,N/A,,Clear,290,2012-11-04 18:56:00
1:56 PM,73.0,55.9,55,30.01,10.0,NW,10.4,17.3,N/A,,Clear,320,2012-11-04 19:56:00
2:56 PM,71.1,57.9,63,30.01,10.0,NNW,9.2,-,N/A,,Clear,330,2012-11-04 20:56:00
3:56 PM,69.1,57.9,68,30.02,10.0,WNW,4.6,-,N/A,,Scattered Clouds,290,2012-11-04 21:56:00
5:56 PM,64.0,55.9,75,30.03,10.0,NW,5.8,-,N/A,,Clear,310,2012-11-04 23:56:00
6:56 PM,62.1,55.0,78,30.04,10.0,WNW,4.6,-,N/A,,Clear,300,2012-11-05 00:56:00
7:56 PM,61.0,55.0,81,30.04,10.0,WNW,4.6,-,N/A,,Clear,300,2012-11-05 01:56:00
8:56 PM,60.1,53.1,78,30.05,10.0,Variable,4.6,-,N/A,,Clear,0,2012-11-05 02:56:00
9:56 PM,57.9,52.0,81,30.06,10.0,NW,6.9,-,N/A,,Clear,320,2012-11-05 03:56:00
10:56 PM,55.9,50.0,80,30.06,10.0,NNW,5.8,-,N/A,,Clear,330,2012-11-05 04:56:00